{"data":{"norad_id":66449,"intl_designator":"2025-259AD","name":"STARLINK-34720","alt_names":[],"object_type":"PAYLOAD","status":"ACTIVE","operator":null,"country":"US","launch_date":"2025-11-11","launch_site_code":"AFETR","launch_vehicle":null,"mission":null,"orbit_class":"UNKNOWN","rcs_meters":null,"size_class":null,"mass_kg":null,"dimensions":null,"purposes":["comms"],"wikipedia_slug":null,"has_3d_model":false,"image_url":null,"decayed_at":null,"tle_current":{"epoch":"2026-09-20T23:17:43.209600Z","epoch_age_seconds":52775,"freshness":"FRESH","line1":"1 66449U 25259AD  26263.97063900  .00009751  00000+0  36324-3 0  9997","line2":"2 66449  42.9985 251.7840 0001250 256.2521 103.8192 15.27593951 49246","mean_motion":15.27593951,"eccentricity":0.000125,"inclination_deg":42.9985,"raan_deg":251.784,"arg_perigee_deg":256.2521,"mean_anomaly_deg":103.8192,"bstar":0.00036324,"rev_number":4924,"period_min":94.26588780725,"perigee_km":482.14967900448,"apogee_km":483.86496508499,"semimajor_km":6861.1443220447,"source":"CELESTRAK","updated_at":"2026-09-21T09:00:35.911889Z"}}}